SCP
0 0 0 0 0 0 0 0 0 0 0 0 0 0 0 0 0 0 0 0 0 0 0 0 0 0 0 0 0 0 0 0 0 0 0 0 0 0 0 0 0 0 0 0 0 0 0 0 0 0 0 0 0 0
0 0 0 0 0 0 0 0 0 0 0 0 0 0 0 0 0 0 0 0 0 0 0 0 0 0 0 0 0 0 0 0 0 0 0 0 0 0 0 0 0 0 0 0 0 0 0 0 0 0 0 0 0 0
0 0 0 0 0 0 0 0 0 0 0 0 0 0 0 0 0 0 0 0 0 0 0 0 0 0 0 0 0 0 0 0 0 0 0 0 0 0 0 0 0 0 0 0 0 0 0 0 0 0 0 0 0 0
0 0 0 0 0 0 0 0 0 0 0 0 0 0 0 0 0 0 0 0 0 0 0 0 0 0 0 0 0 0 0 0 0 0 0 0 0 0 0 0 0 0 0 0 0 0 0 0 0 0 0 0 0 0
0 0 0 0 0 0 0 0 0 0 0 0 0 0 0 0 0 0 0 0 0 0 0 0 0 0 0 0 0 0 0 0 0 0 0 0 0 0 0 0 0 0 0 0 0 0 0 0 0 0 0 0 0 0
0 0 0 0 0 0 0 0 0 0 0 0 0 0 0 0 0 0 0 0 0 0 0 0 0 0 0 0 0 0 0 0 0 0 0 0 0 0 0 0 0 0 0 0 0 0 0 0 0 0 0 0 0 0
0 0 0 0 0 0 0 0 0 0 0 0 0 0 0 0 0 0 0 0 0 0 0 0 0 0 0 0 0 0 0 0 0 0 0 0 0 0 0 0 0 0 0 0 0 0 0 0 0 0 0 0 0 0
0 0 0 0 0 0 0 0 0 0 0 0 0 0 0 0 0 0 0 0 0 0 0 0 0 0 0 0 0 0 0 0 0 0 0 0 0 0 0 0 0 0 0 0 0 0 0 0 0 0 0 0 0 0
0 0 0 0 0 0 0 0 0 0 0 0 0 0 0 0 0 0 0 0 0 0 0 0 0 0 0 0 0 0 0 0 0 0 0 0 0 0 0 0 0 0 0 0 0 0 0 0 0 0 0 0 0 0
0 0 0 0 0 0 0 0 0 0 0 0 0 0 0 0 0 0 0 0 0 0 0 0 0 0 0 0 0 0 0 0 0 0 0 0 0 0 0 0 0 0 0 0 0 0 0 0 0 0 0 0 0 0
0 0 0 0 0 0 0 0 0 0 0 0 0 0 0 0 0 0 0 0 0 0 0 0 0 0 0 0 0 0 0 0 0 0 0 0 0 0 0 0 0 0 0 0 0 0 0 0 0 0 0 0 0 0
0 0 0 0 0 0 0 0 0 0 0 0 0 0 0 0 0 0 0 0 0 0 0 0 0 0 0 0 0 0 0 0 0 0 0 0 0 0 0 0 0 0 0 0 0 0 0 0 0 0 0 0 0 0
0 0 0 0 0 0 0 0 0 0 0 0 0 0 0 0 0 0 0 0 0 0 0 0 0 0 0 0 0 0 0 0 0 0 0 0 0 0 0 0 0 0 0 0 0 0 0 0 0 0 0 0 0 0
0 0 0 0 0 0 0 0 0 0 0 0 0 0 0 0 0 0 0 0 0 0 0 0 0 0 0 0 0 0 0 0 0 0 0 0 0 0 0 0 0 0 0 0 0 0 0 0 0 0 0 0 0 0
0 0 0 0 0 0 0 0 0 0 0 0 0 0 0 0 0 0 0 0 0 0 0 0 0 0 0 0 0 0 0 0 0 0 0 0 0 0 0 0 0 0 0 0 0 0 0 0 0 0 0 0 0 0
0 0 0 0 0 0 0 0 0 0 0 0 0 0 0 0 0 0 0 0 0 0 0 0 0 0 0 0 0 0 0 0 0 0 0 0 0 0 0 0 0 0 0 0 0 0 0 0 0 0 0 0 0 0
0 0 0 0 0 0 0 0 0 0 0 0 0 0 0 0 0 0 0 0 0 0 0 0 0 0 0 0 0 0 0 0 0 0 0 0 0 0 0 0 0 0 0 0 0 0 0 0 0 0 0 0 0 0
0 0 0 0 0 0 0 0 0 0 0 0 0 0 0 0 0 0 0 0 0 0 0 0 0 0 0 0 0 0 0 0 0 0 0 0 0 0 0 0 0 0 0 0 0 0 0 0 0 0 0 0 0 0
0 0 0 0 0 0 0 0 0 0 0 0 0 0 0 0 0 0 0 0 0 0 0 0 0 0 0 0 0 0 0 0 0 0 0 0 0 0 0 0 0 0 0 0 0 0 0 0 0 0 0 0 0 0
0 0 0 0 0 0 0 0 0 0 0 0 0 0 0 0 0 0 0 0 0 0 0 0 0 0 0 0 0 0 0 0 0 0 0 0 0 0 0 0 0 0 0 0 0 0 0 0 0 0 0 0 0 0
0 0 0 0 0 0 0 0 0 0 0 0 0 0 0 0 0 0 0 0 0 0 0 0 0 0 0 0 0 0 0 0 0 0 0 0 0 0 0 0 0 0 0 0 0 0 0 0 0 0 0 0 0 0
0 0 0 0 0 0 0 0 0 0 0 0 0 0 0 0 0 0 0 0 0 0 0 0 0 0 0 0 0 0 0 0 0 0 0 0 0 0 0 0 0 0 0 0 0 0 0 0 0 0 0 0 0 0
0 0 0 0 0 0 0 0 0 0 0 0 0 0 0 0 0 0 0 0 0 0 0 0 0 0 0 0 0 0 0 0 0 0 0 0 0 0 0 0 0 0 0 0 0 0 0 0 0 0 0 0 0 0
0 0 0 0 0 0 0 0 0 0 0 0 0 0 0 0 0 0 0 0 0 0 0 0 0 0 0 0 0 0 0 0 0 0 0 0 0 0 0 0 0 0 0 0 0 0 0 0 0 0 0 0 0 0
0 0 0 0 0 0 0 0 0 0 0 0 0 0 0 0 0 0 0 0 0 0 0 0 0 0 0 0 0 0 0 0 0 0 0 0 0 0 0 0 0 0 0 0 0 0 0 0 0 0 0 0 0 0
0 0 0 0 0 0 0 0 0 0 0 0 0 0 0 0 0 0 0 0 0 0 0 0 0 0 0 0 0 0 0 0 0 0 0 0 0 0 0 0 0 0 0 0 0 0 0 0 0 0 0 0 0 0
0 0 0 0 0 0 0 0 0 0 0 0 0 0 0 0 0 0 0 0 0 0 0 0 0 0 0 0 0 0 0 0 0 0 0 0 0 0 0 0 0 0 0 0 0 0 0 0 0 0 0 0 0 0
0 0 0 0 0 0 0 0 0 0 0 0 0 0 0 0 0 0 0 0 0 0 0 0 0 0 0 0 0 0 0 0 0 0 0 0 0 0 0 0 0 0 0 0 0 0 0 0 0 0 0 0 0 0
0 0 0 0 0 0 0 0 0 0 0 0 0 0 0 0 0 0 0 0 0 0 0 0 0 0 0 0 0 0 0 0 0 0 0 0 0 0 0 0 0 0 0 0 0 0 0 0 0 0 0 0 0 0
0 0 0 0 0 0 0 0 0 0 0 0 0 0 0 0 0 0 0 0 0 0 0 0 0 0 0 0 0 0 0 0 0 0 0 0 0 0 0 0 0 0 0 0 0 0 0 0 0 0 0 0 0 0
0 0 0 0 0 0 0 0 0 0 0 0 0 0 0 0 0 0 0 0 0 0 0 0 0 0 0 0 0 0 0 0 0 0 0 0 0 0 0 0 0 0 0 0 0 0 0 0 0 0 0 0 0 0
0 0 0 0 0 0 0 0 0 0 0 0 0 0 0 0 0 0 0 0 0 0 0 0 0 0 0 0 0 0 0 0 0 0 0 0 0 0 0 0 0 0 0 0 0 0 0 0 0 0 0 0 0 0
0 0 0 0 0 0 0 0 0 0 0 0 0 0 0 0 0 0 0 0 0 0 0 0 0 0 0 0 0 0 0 0 0 0 0 0 0 0 0 0 0 0 0 0 0 0 0 0 0 0 0 0 0 0
Wind_Speed_500mb
103 99 95 85 84 79 79 77 70 64 60 56 55 52 49 45 41 40 38 35 38 17 24 23 25 17 14 14 8 20 12 6 6 8 7 4 7 6 5 1 10 15 14 12 5 10 18 4 4 9 6 7 16 24
108 103 98 88 91 89 90 89 79 71 65 61 59 56 51 48 45 42 42 36 38 30 15 22 32 32 31 21 15 30 6 9 15 5 5 3 7 5 3 8 5 9 11 4 16 8 7 6 11 6 8 15 22 29
113 108 101 94 92 92 84 89 81 77 70 63 61 59 54 50 46 46 42 35 34 31 26 26 25 34 35 33 29 14 14 16 15 15 9 2 14 7 9 12 5 10 8 8 4 7 10 10 4 6 13 20 27 34
115 113 104 97 95 91 89 87 91 91 74 69 65 60 55 52 47 45 43 37 38 12 10 15 28 28 32 32 32 33 20 19 13 16 8 6 6 13 5 3 6 1 11 6 9 4 6 17 12 16 21 32 45 53
101 108 105 104 99 94 90 91 89 96 77 74 70 63 59 54 48 43 42 41 42 31 4 6 12 26 23 24 29 27 22 20 14 9 8 7 5 6 4 4 9 16 7 6 6 9 2 2 10 26 32 45 53 62
91 97 110 112 105 102 97 95 97 100 94 85 75 66 59 47 43 38 22 43 49 50 9 5 11 15 21 22 20 23 27 23 15 10 8 8 9 6 6 7 7 11 9 6 6 4 5 16 24 30 41 56 58 60
88 93 97 95 95 109 103 101 106 112 94 81 73 67 57 53 48 42 13 13 48 45 11 4 7 8 20 20 18 16 20 12 12 7 6 3 4 9 5 9 12 16 17 11 2 12 11 17 27 46 51 57 59 60
90 94 92 94 98 95 114 110 108 104 83 80 71 63 55 51 49 41 28 10 34 36 14 6 4 8 22 9 7 15 8 13 9 4 3 4 5 8 10 7 13 17 12 5 7 17 26 36 45 51 55 59 61 64
90 90 94 93 94 102 109 123 115 93 86 86 73 66 52 44 31 30 28 24 39 18 8 12 10 8 25 11 9 10 11 6 5 7 6 4 5 12 3 26 20 14 8 5 15 26 36 44 54 59 59 64 67 71
96 89 89 93 92 101 121 133 116 98 96 89 77 32 18 20 20 28 21 14 19 17 14 8 12 7 15 12 5 10 5 3 6 3 3 7 8 9 16 28 20 10 3 13 25 35 48 55 61 64 65 64 67 68
95 91 85 80 94 117 130 126 112 108 100 78 29 18 38 43 30 18 11 11 12 8 15 13 15 15 16 7 8 8 6 3 5 4 4 5 8 12 33 22 11 2 12 20 26 35 43 52 60 63 66 68 66 72
96 87 83 72 91 124 132 133 124 123 84 54 40 55 52 15 7 6 8 6 12 11 20 17 13 14 15 11 9 8 4 4 6 6 4 7 3 32 31 16 2 9 19 28 33 39 43 49 56 64 66 72 80 86
92 82 80 78 111 131 143 140 132 108 81 68 18 19 20 14 11 15 18 9 7 24 28 26 15 14 12 8 11 7 9 6 8 5 7 5 23 41 21 4 7 17 25 30 32 40 50 59 63 69 77 77 78 80
88 78 80 93 125 143 153 142 139 110 79 17 17 13 13 12 13 11 5 8 16 20 57 46 21 10 11 7 6 7 3 3 6 7 10 9 52 34 10 7 15 22 27 32 40 50 57 64 73 75 71 70 74 79
87 77 88 114 136 156 162 145 137 103 28 17 20 16 18 11 7 12 17 27 24 59 67 31 17 10 7 7 1 8 6 9 10 7 3 14 55 28 11 18 23 26 29 39 49 56 62 68 73 73 70 71 69 70
79 70 113 135 151 169 159 140 122 62 18 22 17 12 13 16 10 19 24 28 60 70 36 11 9 6 5 7 9 14 9 12 6 7 15 31 36 24 24 27 27 28 35 46 50 57 64 67 66 69 69 65 68 71
95 70 123 158 171 157 141 117 67 13 14 15 8 18 20 15 23 28 35 42 80 48 6 12 9 6 13 5 7 9 9 4 14 22 34 22 18 23 23 25 27 34 44 48 52 59 63 60 60 59 62 63 67 68
93 101 157 172 166 129 95 53 21 14 7 7 11 28 25 22 36 38 36 71 53 31 18 7 20 9 10 11 7 8 16 13 21 26 14 16 18 21 25 30 36 43 47 48 55 60 56 55 54 54 57 60 63 67
114 150 181 183 157 111 24 20 11 12 7 14 27 39 23 26 40 48 41 82 29 24 22 16 6 7 7 10 12 29 25 18 15 16 16 18 23 26 30 36 39 42 46 51 57 53 51 48 47 48 51 56 61 64
131 168 185 153 123 37 15 13 15 17 11 16 27 27 25 24 38 44 60 50 35 19 8 7 8 11 16 24 25 20 14 10 5 4 14 18 23 26 28 31 39 43 48 54 49 48 45 43 41 45 49 53 59 63
172 154 135 118 61 23 17 16 13 15 24 16 42 20 18 34 30 31 46 41 18 11 11 14 18 26 25 22 17 15 13 6 2 10 12 18 24 35 35 36 41 44 51 47 46 43 41 41 43 46 52 56 60 63
138 133 115 72 16 14 16 12 26 26 12 28 21 16 19 13 15 21 27 20 14 21 17 22 29 30 25 22 21 21 16 10 9 12 14 21 36 37 37 38 40 47 45 42 44 42 40 41 45 51 58 63 67 70
137 109 61 16 17 13 13 14 12 10 9 12 15 11 8 10 19 33 17 18 22 27 32 30 24 22 20 23 28 29 24 19 18 18 22 31 43 39 39 38 43 42 42 38 39 41 41 44 51 57 63 68 73 78
105 39 13 12 12 11 17 7 11 15 14 7 7 9 7 11 28 10 7 11 20 36 42 40 35 27 27 30 35 33 28 27 25 26 32 40 47 43 38 39 35 37 41 39 38 40 44 50 56 63 67 72 75 79
25 9 15 11 13 14 9 10 6 6 7 7 9 7 7 13 6 7 6 10 39 43 42 45 38 32 31 25 24 24 19 17 24 34 39 43 42 41 38 32 32 33 35 34 36 44 50 56 63 69 72 73 76 80
15 5 6 10 10 9 11 12 10 9 9 7 7 15 13 8 9 10 8 22 37 45 45 45 37 32 26 22 25 21 20 25 36 41 40 40 37 32 30 33 32 25 30 33 42 50 56 62 69 73 74 74 75 78
11 6 7 10 21 28 14 17 16 9 8 10 11 13 9 11 12 8 9 19 30 31 30 28 23 18 16 19 23 21 27 39 40 39 36 31 24 26 29 28 27 29 32 40 46 53 60 66 69 69 72 73 72 72
10 10 12 17 15 10 12 9 8 7 8 19 26 11 18 16 8 14 20 33 33 31 27 21 20 23 24 22 22 34 40 37 33 28 21 18 22 24 24 23 25 33 38 43 49 54 58 61 62 65 68 71 71 69
10 28 28 11 14 14 10 4 6 11 28 37 8 9 13 12 26 31 34 34 29 23 17 15 16 15 21 34 38 35 30 23 17 13 17 22 19 20 21 25 31 37 43 46 47 50 53 55 57 61 61 62 62 62
8 10 12 10 8 7 5 6 15 35 34 18 19 24 24 28 31 31 32 29 23 19 14 12 19 27 27 24 21 18 14 10 12 18 20 20 21 23 27 32 36 40 44 47 48 46 45 47 47 47 51 54 56 59
12 11 15 16 11 9 27 36 40 35 28 26 36 35 27 19 23 25 25 20 14 10 12 11 11 14 16 15 12 8 7 11 14 18 20 22 25 29 34 37 40 42 44 45 45 45 44 43 44 47 49 51 52 54
13 14 12 10 9 17 19 12 11 11 10 11 12 14 12 11 9 11 14 12 9 7 10 10 11 13 13 13 11 9 10 15 17 20 25 29 32 35 38 40 40 41 41 41 39 37 36 37 40 43 47 49 50 53
17 31 25 17 9 6 10 11 11 9 13 9 10 8 7 8 7 10 14 14 14 11 8 7 9 11 14 16 17 16 18 22 25 29 32 35 38 40 39 38 37 38 39 36 32 31 33 36 39 42 46 50 52 55
Wind_Direction_500mb
231 232 234 239 242 242 241 241 241 242 240 236 235 230 229 229 230 230 232 228 218 227 250 229 224 206 195 191 181 161 136 178 145 197 218 206 229 188 254 180 187 186 186 208 207 249 270 117 150 224 36 354 331 325
232 232 232 238 242 242 246 240 237 238 238 234 232 230 228 228 227 229 231 229 225 226 256 244 237 231 227 218 202 178 202 171 176 172 206 143 220 184 270 255 188 248 222 258 204 230 126 72 104 83 356 324 321 314
231 230 231 236 242 244 248 240 239 237 233 232 231 228 226 226 223 226 230 230 221 234 253 248 238 233 229 226 217 190 215 199 196 186 157 184 242 158 208 222 233 223 189 234 352 141 183 164 131 338 318 309 310 311
233 228 229 232 238 242 244 242 239 234 229 225 227 226 224 224 223 225 227 228 219 212 230 230 232 227 227 222 220 220 229 207 195 185 187 211 245 201 239 315 245 337 158 217 253 186 172 215 262 315 308 309 315 318
233 229 232 235 237 240 242 244 244 237 224 221 220 221 221 220 219 222 226 226 221 215 215 216 235 231 230 225 219 221 216 203 181 171 193 225 228 215 203 272 237 195 219 220 299 118 232 249 298 305 308 316 319 320
240 237 234 237 235 238 241 243 238 237 224 216 215 213 214 215 217 212 221 232 222 218 246 212 236 219 206 203 203 200 201 200 192 186 205 227 228 214 259 252 170 193 199 188 181 151 310 300 305 316 313 316 316 315
234 238 236 236 243 241 241 241 240 233 215 211 205 203 205 212 211 197 213 229 205 200 219 203 208 185 177 172 181 182 189 198 192 215 230 251 210 214 252 252 137 152 156 149 146 332 318 315 309 311 311 312 311 312
239 238 240 243 245 249 242 240 243 219 205 201 194 196 197 198 202 212 224 204 176 177 204 194 122 183 175 164 169 172 168 190 206 200 220 229 244 223 251 151 150 170 182 216 272 308 308 309 311 313 314 314 315 318
239 243 242 244 247 247 250 238 231 203 197 190 178 182 181 186 192 204 202 198 183 201 232 191 175 178 166 151 149 153 161 189 234 218 193 226 203 229 217 153 150 154 174 285 315 318 321 321 322 322 322 318 316 313
235 240 243 241 246 247 237 221 210 184 181 170 171 152 176 183 173 174 179 193 208 222 231 220 158 127 153 157 147 134 142 149 212 145 193 225 254 239 167 169 160 147 15 336 325 324 327 322 322 319 317 313 313 311
232 234 241 242 242 226 206 195 182 167 169 158 154 140 143 151 149 165 170 194 207 229 205 174 170 136 165 156 137 181 147 153 231 140 240 220 259 190 163 151 143 37 337 333 324 321 321 320 322 320 318 315 314 314
228 229 231 237 234 203 190 187 178 174 167 165 140 126 131 154 133 163 197 186 213 214 159 154 149 126 139 141 120 162 153 193 240 134 230 246 204 161 163 156 157 341 334 332 330 326 325 325 324 320 321 321 321 321
225 225 227 234 213 196 185 187 176 168 154 127 109 134 150 164 185 205 195 206 214 169 167 150 130 143 129 140 97 161 175 198 129 206 234 254 163 164 168 200 306 330 327 324 325 323 324 323 325 324 324 326 324 322
222 220 223 229 201 185 177 182 177 163 145 112 146 141 202 187 227 197 197 139 153 159 153 144 122 137 129 116 142 159 81 182 215 234 234 177 174 167 182 288 312 317 313 318 319 320 321 322 325 327 328 327 326 325
216 216 224 209 192 180 180 187 176 162 140 145 162 186 201 168 153 164 146 132 132 155 147 122 101 119 115 113 112 117 148 234 225 230 180 187 186 188 251 290 301 300 308 314 316 318 320 323 326 326 329 330 328 329
206 216 201 194 185 176 175 167 163 161 122 156 178 136 132 131 143 162 160 151 154 154 145 126 117 126 123 131 166 208 188 220 192 200 174 152 174 218 269 287 286 294 307 311 315 317 320 324 325 326 328 331 335 338
197 180 174 170 170 167 165 156 151 141 166 162 155 163 144 131 154 162 172 170 160 161 150 139 139 147 117 177 216 195 212 164 172 165 170 191 255 284 276 271 284 295 301 307 313 318 321 323 323 326 331 339 339 341
189 173 167 165 163 153 153 161 147 155 129 132 149 155 148 142 164 168 174 172 168 183 157 153 128 178 191 184 207 195 185 156 171 182 220 288 296 291 271 275 285 289 296 308 315 319 321 322 326 330 334 338 339 342
175 170 170 169 160 151 138 162 151 112 109 128 133 147 137 145 168 180 176 174 180 173 150 155 159 188 199 202 164 154 162 175 189 219 265 306 310 289 277 282 291 290 300 310 316 316 320 321 324 328 332 335 335 339
175 172 171 162 164 145 102 101 124 105 143 149 141 132 131 139 157 170 175 172 163 159 196 210 203 196 176 171 164 169 168 157 164 303 332 330 309 298 293 294 292 295 303 310 311 315 316 317 322 326 329 329 330 335
157 151 155 159 157 90 102 137 110 117 129 114 131 116 102 131 135 153 170 174 183 216 213 208 185 166 159 171 185 184 183 196 350 350 327 317 313 302 299 294 293 297 305 309 311 313 312 314 319 323 323 326 327 331
151 157 148 152 99 83 82 82 118 121 95 132 115 105 110 107 131 153 169 198 229 217 195 189 178 177 191 209 215 208 216 234 272 295 291 310 324 311 298 294 294 302 303 307 308 309 310 314 317 320 322 325 326 328
149 149 145 98 89 73 119 107 89 103 119 145 117 103 101 126 158 147 186 224 230 218 204 205 195 195 210 227 228 226 233 256 275 289 305 318 318 307 297 293 299 299 302 307 304 307 312 316 318 319 322 323 325 328
144 134 100 93 94 104 136 93 107 108 110 147 110 106 124 128 153 185 226 223 209 201 205 210 212 222 228 229 231 237 248 264 271 293 304 310 309 303 296 298 297 299 301 305 309 312 315 317 319 319 321 324 327 329
106 63 103 86 117 121 115 125 116 104 115 134 113 125 148 144 162 195 235 227 195 201 206 213 218 225 232 241 238 236 249 269 288 295 299 302 299 296 296 295 298 300 301 307 311 314 317 318 318 319 322 326 329 331
83 60 95 134 151 132 150 126 149 130 124 99 80 126 142 158 178 221 215 202 192 202 206 212 215 212 224 239 238 231 258 291 299 294 296 295 294 290 291 297 301 302 306 314 316 317 317 318 319 322 325 329 332 331
101 110 95 100 121 119 102 85 113 115 120 144 157 160 161 173 211 233 180 159 166 166 166 169 187 205 227 218 219 245 284 295 290 288 290 291 286 290 294 296 300 303 309 312 313 314 317 321 323 325 326 329 332 334
98 127 128 136 99 88 112 111 141 140 137 150 142 166 167 176 181 152 146 143 143 156 168 189 212 209 210 227 258 284 287 283 280 281 281 282 292 291 291 295 300 303 307 309 313 318 321 323 324 326 328 331 335 338
79 123 110 80 83 65 59 98 125 137 150 159 136 159 167 133 131 136 140 152 156 164 181 189 197 224 263 276 279 277 273 268 269 278 290 296 291 290 293 295 298 302 305 310 316 319 320 321 325 328 330 330 331 331
91 98 99 69 62 68 24 102 124 132 140 131 112 116 110 118 125 138 147 154 165 182 203 240 268 274 276 266 254 243 246 261 285 294 297 297 296 295 295 297 301 305 310 313 318 320 319 320 323 326 330 334 338 339
98 89 77 64 78 70 107 113 119 114 104 99 110 115 117 122 142 156 164 178 205 247 278 261 254 255 247 239 229 233 254 290 296 299 298 297 297 299 301 305 310 313 315 317 317 319 321 324 328 331 336 340 343 342
60 62 114 100 106 122 101 96 82 79 83 87 76 102 114 117 124 154 176 207 209 196 208 222 242 246 240 233 225 222 286 304 306 304 303 303 305 308 311 313 315 315 314 314 316 316 317 321 327 332 335 338 340 342
77 79 87 96 98 78 69 90 63 71 51 60 50 67 89 117 128 189 192 206 206 199 205 243 255 250 239 234 235 251 292 303 306 307 307 309 311 313 314 317 317 316 315 317 315 312 315 319 325 329 331 331 333 336
Wind_Speed_850mb
103 99 95 85 84 79 79 77 70 64 60 56 55 52 49 45 41 40 38 35 38 17 24 23 25 17 14 14 8 20 12 6 6 8 7 4 7 6 5 1 10 15 14 12 5 10 18 4 4 9 6 7 16 24
108 103 98 88 91 89 90 89 79 71 65 61 59 56 51 48 45 42 42 36 38 30 15 22 32 32 31 21 15 30 6 9 15 5 5 3 7 5 3 8 5 9 11 4 16 8 7 6 11 6 8 15 22 29
113 108 101 94 92 92 84 89 81 77 70 63 61 59 54 50 46 46 42 35 34 31 26 26 25 34 35 33 29 14 14 16 15 15 9 2 14 7 9 12 5 10 8 8 4 7 10 10 4 6 13 20 27 34
115 113 104 97 95 91 89 87 91 91 74 69 65 60 55 52 47 45 43 37 38 12 10 15 28 28 32 32 32 33 20 19 13 16 8 6 6 13 5 3 6 1 11 6 9 4 6 17 12 16 21 32 45 53
101 108 105 104 99 94 90 91 89 96 77 74 70 63 59 54 48 43 42 41 42 31 4 6 12 26 23 24 29 27 22 20 14 9 8 7 5 6 4 4 9 16 7 6 6 9 2 2 10 26 32 45 53 62
91 97 110 112 105 102 97 95 97 100 94 85 75 66 59 47 43 38 22 43 49 50 9 5 11 15 21 22 20 23 27 23 15 10 8 8 9 6 6 7 7 11 9 6 6 4 5 16 24 30 41 56 58 60
88 93 97 95 95 109 103 101 106 112 94 81 73 67 57 53 48 42 13 13 48 45 11 4 7 8 20 20 18 16 20 12 12 7 6 3 4 9 5 9 12 16 17 11 2 12 11 17 27 46 51 57 59 60
90 94 92 94 98 95 114 110 108 104 83 80 71 63 55 51 49 41 28 10 34 36 14 6 4 8 22 9 7 15 8 13 9 4 3 4 5 8 10 7 13 17 12 5 7 17 26 36 45 51 55 59 61 64
90 90 94 93 94 102 109 123 115 93 86 86 73 66 52 44 31 30 28 24 39 18 8 12 10 8 25 11 9 10 11 6 5 7 6 4 5 12 3 26 20 14 8 5 15 26 36 44 54 59 59 64 67 71
96 89 89 93 92 101 121 133 116 98 96 89 77 32 18 20 20 28 21 14 19 17 14 8 12 7 15 12 5 10 5 3 6 3 3 7 8 9 16 28 20 10 3 13 25 35 48 55 61 64 65 64 67 68
95 91 85 80 94 117 130 126 112 108 100 78 29 18 38 43 30 18 11 11 12 8 15 13 15 15 16 7 8 8 6 3 5 4 4 5 8 12 33 22 11 2 12 20 26 35 43 52 60 63 66 68 66 72
96 87 83 72 91 124 132 133 124 123 84 54 40 55 52 15 7 6 8 6 12 11 20 17 13 14 15 11 9 8 4 4 6 6 4 7 3 32 31 16 2 9 19 28 33 39 43 49 56 64 66 72 80 86
92 82 80 78 111 131 143 140 132 108 81 68 18 19 20 14 11 15 18 9 7 24 28 26 15 14 12 8 11 7 9 6 8 5 7 5 23 41 21 4 7 17 25 30 32 40 50 59 63 69 77 77 78 80
88 78 80 93 125 143 153 142 139 110 79 17 17 13 13 12 13 11 5 8 16 20 57 46 21 10 11 7 6 7 3 3 6 7 10 9 52 34 10 7 15 22 27 32 40 50 57 64 73 75 71 70 74 79
87 77 88 114 136 156 162 145 137 103 28 17 20 16 18 11 7 12 17 27 24 59 67 31 17 10 7 7 1 8 6 9 10 7 3 14 55 28 11 18 23 26 29 39 49 56 62 68 73 73 70 71 69 70
79 70 113 135 151 169 159 140 122 62 18 22 17 12 13 16 10 19 24 28 60 70 36 11 9 6 5 7 9 14 9 12 6 7 15 31 36 24 24 27 27 28 35 46 50 57 64 67 66 69 69 65 68 71
95 70 123 158 171 157 141 117 67 13 14 15 8 18 20 15 23 28 35 42 80 48 6 12 9 6 13 5 7 9 9 4 14 22 34 22 18 23 23 25 27 34 44 48 52 59 63 60 60 59 62 63 67 68
93 101 157 172 166 129 95 53 21 14 7 7 11 28 25 22 36 38 36 71 53 31 18 7 20 9 10 11 7 8 16 13 21 26 14 16 18 21 25 30 36 43 47 48 55 60 56 55 54 54 57 60 63 67
114 150 181 183 157 111 24 20 11 12 7 14 27 39 23 26 40 48 41 82 29 24 22 16 6 7 7 10 12 29 25 18 15 16 16 18 23 26 30 36 39 42 46 51 57 53 51 48 47 48 51 56 61 64
131 168 185 153 123 37 15 13 15 17 11 16 27 27 25 24 38 44 60 50 35 19 8 7 8 11 16 24 25 20 14 10 5 4 14 18 23 26 28 31 39 43 48 54 49 48 45 43 41 45 49 53 59 63
172 154 135 118 61 23 17 16 13 15 24 16 42 20 18 34 30 31 46 41 18 11 11 14 18 26 25 22 17 15 13 6 2 10 12 18 24 35 35 36 41 44 51 47 46 43 41 41 43 46 52 56 60 63
138 133 115 72 16 14 16 12 26 26 12 28 21 16 19 13 15 21 27 20 14 21 17 22 29 30 25 22 21 21 16 10 9 12 14 21 36 37 37 38 40 47 45 42 44 42 40 41 45 51 58 63 67 70
137 109 61 16 17 13 13 14 12 10 9 12 15 11 8 10 19 33 17 18 22 27 32 30 24 22 20 23 28 29 24 19 18 18 22 31 43 39 39 38 43 42 42 38 39 41 41 44 51 57 63 68 73 78
105 39 13 12 12 11 17 7 11 15 14 7 7 9 7 11 28 10 7 11 20 36 42 40 35 27 27 30 35 33 28 27 25 26 32 40 47 43 38 39 35 37 41 39 38 40 44 50 56 63 67 72 75 79
25 9 15 11 13 14 9 10 6 6 7 7 9 7 7 13 6 7 6 10 39 43 42 45 38 32 31 25 24 24 19 17 24 34 39 43 42 41 38 32 32 33 35 34 36 44 50 56 63 69 72 73 76 80
15 5 6 10 10 9 11 12 10 9 9 7 7 15 13 8 9 10 8 22 37 45 45 45 37 32 26 22 25 21 20 25 36 41 40 40 37 32 30 33 32 25 30 33 42 50 56 62 69 73 74 74 75 78
11 6 7 10 21 28 14 17 16 9 8 10 11 13 9 11 12 8 9 19 30 31 30 28 23 18 16 19 23 21 27 39 40 39 36 31 24 26 29 28 27 29 32 40 46 53 60 66 69 69 72 73 72 72
10 10 12 17 15 10 12 9 8 7 8 19 26 11 18 16 8 14 20 33 33 31 27 21 20 23 24 22 22 34 40 37 33 28 21 18 22 24 24 23 25 33 38 43 49 54 58 61 62 65 68 71 71 69
10 28 28 11 14 14 10 4 6 11 28 37 8 9 13 12 26 31 34 34 29 23 17 15 16 15 21 34 38 35 30 23 17 13 17 22 19 20 21 25 31 37 43 46 47 50 53 55 57 61 61 62 62 62
8 10 12 10 8 7 5 6 15 35 34 18 19 24 24 28 31 31 32 29 23 19 14 12 19 27 27 24 21 18 14 10 12 18 20 20 21 23 27 32 36 40 44 47 48 46 45 47 47 47 51 54 56 59
12 11 15 16 11 9 27 36 40 35 28 26 36 35 27 19 23 25 25 20 14 10 12 11 11 14 16 15 12 8 7 11 14 18 20 22 25 29 34 37 40 42 44 45 45 45 44 43 44 47 49 51 52 54
13 14 12 10 9 17 19 12 11 11 10 11 12 14 12 11 9 11 14 12 9 7 10 10 11 13 13 13 11 9 10 15 17 20 25 29 32 35 38 40 40 41 41 41 39 37 36 37 40 43 47 49 50 53
17 31 25 17 9 6 10 11 11 9 13 9 10 8 7 8 7 10 14 14 14 11 8 7 9 11 14 16 17 16 18 22 25 29 32 35 38 40 39 38 37 38 39 36 32 31 33 36 39 42 46 50 52 55
Wind_Direction_850mb
231 232 234 239 242 242 241 241 241 242 240 236 235 230 229 229 230 230 232 228 218 227 250 229 224 206 195 191 181 161 136 178 145 197 218 206 229 188 254 180 187 186 186 208 207 249 270 117 150 224 36 354 331 325
232 232 232 238 242 242 246 240 237 238 238 234 232 230 228 228 227 229 231 229 225 226 256 244 237 231 227 218 202 178 202 171 176 172 206 143 220 184 270 255 188 248 222 258 204 230 126 72 104 83 356 324 321 314
231 230 231 236 242 244 248 240 239 237 233 232 231 228 226 226 223 226 230 230 221 234 253 248 238 233 229 226 217 190 215 199 196 186 157 184 242 158 208 222 233 223 189 234 352 141 183 164 131 338 318 309 310 311
233 228 229 232 238 242 244 242 239 234 229 225 227 226 224 224 223 225 227 228 219 212 230 230 232 227 227 222 220 220 229 207 195 185 187 211 245 201 239 315 245 337 158 217 253 186 172 215 262 315 308 309 315 318
233 229 232 235 237 240 242 244 244 237 224 221 220 221 221 220 219 222 226 226 221 215 215 216 235 231 230 225 219 221 216 203 181 171 193 225 228 215 203 272 237 195 219 220 299 118 232 249 298 305 308 316 319 320
240 237 234 237 235 238 241 243 238 237 224 216 215 213 214 215 217 212 221 232 222 218 246 212 236 219 206 203 203 200 201 200 192 186 205 227 228 214 259 252 170 193 199 188 181 151 310 300 305 316 313 316 316 315
234 238 236 236 243 241 241 241 240 233 215 211 205 203 205 212 211 197 213 229 205 200 219 203 208 185 177 172 181 182 189 198 192 215 230 251 210 214 252 252 137 152 156 149 146 332 318 315 309 311 311 312 311 312
239 238 240 243 245 249 242 240 243 219 205 201 194 196 197 198 202 212 224 204 176 177 204 194 122 183 175 164 169 172 168 190 206 200 220 229 244 223 251 151 150 170 182 216 272 308 308 309 311 313 314 314 315 318
239 243 242 244 247 247 250 238 231 203 197 190 178 182 181 186 192 204 202 198 183 201 232 191 175 178 166 151 149 153 161 189 234 218 193 226 203 229 217 153 150 154 174 285 315 318 321 321 322 322 322 318 316 313
235 240 243 241 246 247 237 221 210 184 181 170 171 152 176 183 173 174 179 193 208 222 231 220 158 127 153 157 147 134 142 149 212 145 193 225 254 239 167 169 160 147 15 336 325 324 327 322 322 319 317 313 313 311
232 234 241 242 242 226 206 195 182 167 169 158 154 140 143 151 149 165 170 194 207 229 205 174 170 136 165 156 137 181 147 153 231 140 240 220 259 190 163 151 143 37 337 333 324 321 321 320 322 320 318 315 314 314
228 229 231 237 234 203 190 187 178 174 167 165 140 126 131 154 133 163 197 186 213 214 159 154 149 126 139 141 120 162 153 193 240 134 230 246 204 161 163 156 157 341 334 332 330 326 325 325 324 320 321 321 321 321
225 225 227 234 213 196 185 187 176 168 154 127 109 134 150 164 185 205 195 206 214 169 167 150 130 143 129 140 97 161 175 198 129 206 234 254 163 164 168 200 306 330 327 324 325 323 324 323 325 324 324 326 324 322
222 220 223 229 201 185 177 182 177 163 145 112 146 141 202 187 227 197 197 139 153 159 153 144 122 137 129 116 142 159 81 182 215 234 234 177 174 167 182 288 312 317 313 318 319 320 321 322 325 327 328 327 326 325
216 216 224 209 192 180 180 187 176 162 140 145 162 186 201 168 153 164 146 132 132 155 147 122 101 119 115 113 112 117 148 234 225 230 180 187 186 188 251 290 301 300 308 314 316 318 320 323 326 326 329 330 328 329
206 216 201 194 185 176 175 167 163 161 122 156 178 136 132 131 143 162 160 151 154 154 145 126 117 126 123 131 166 208 188 220 192 200 174 152 174 218 269 287 286 294 307 311 315 317 320 324 325 326 328 331 335 338
197 180 174 170 170 167 165 156 151 141 166 162 155 163 144 131 154 162 172 170 160 161 150 139 139 147 117 177 216 195 212 164 172 165 170 191 255 284 276 271 284 295 301 307 313 318 321 323 323 326 331 339 339 341
189 173 167 165 163 153 153 161 147 155 129 132 149 155 148 142 164 168 174 172 168 183 157 153 128 178 191 184 207 195 185 156 171 182 220 288 296 291 271 275 285 289 296 308 315 319 321 322 326 330 334 338 339 342
175 170 170 169 160 151 138 162 151 112 109 128 133 147 137 145 168 180 176 174 180 173 150 155 159 188 199 202 164 154 162 175 189 219 265 306 310 289 277 282 291 290 300 310 316 316 320 321 324 328 332 335 335 339
175 172 171 162 164 145 102 101 124 105 143 149 141 132 131 139 157 170 175 172 163 159 196 210 203 196 176 171 164 169 168 157 164 303 332 330 309 298 293 294 292 295 303 310 311 315 316 317 322 326 329 329 330 335
157 151 155 159 157 90 102 137 110 117 129 114 131 116 102 131 135 153 170 174 183 216 213 208 185 166 159 171 185 184 183 196 350 350 327 317 313 302 299 294 293 297 305 309 311 313 312 314 319 323 323 326 327 331
151 157 148 152 99 83 82 82 118 121 95 132 115 105 110 107 131 153 169 198 229 217 195 189 178 177 191 209 215 208 216 234 272 295 291 310 324 311 298 294 294 302 303 307 308 309 310 314 317 320 322 325 326 328
149 149 145 98 89 73 119 107 89 103 119 145 117 103 101 126 158 147 186 224 230 218 204 205 195 195 210 227 228 226 233 256 275 289 305 318 318 307 297 293 299 299 302 307 304 307 312 316 318 319 322 323 325 328
144 134 100 93 94 104 136 93 107 108 110 147 110 106 124 128 153 185 226 223 209 201 205 210 212 222 228 229 231 237 248 264 271 293 304 310 309 303 296 298 297 299 301 305 309 312 315 317 319 319 321 324 327 329
106 63 103 86 117 121 115 125 116 104 115 134 113 125 148 144 162 195 235 227 195 201 206 213 218 225 232 241 238 236 249 269 288 295 299 302 299 296 296 295 298 300 301 307 311 314 317 318 318 319 322 326 329 331
83 60 95 134 151 132 150 126 149 130 124 99 80 126 142 158 178 221 215 202 192 202 206 212 215 212 224 239 238 231 258 291 299 294 296 295 294 290 291 297 301 302 306 314 316 317 317 318 319 322 325 329 332 331
101 110 95 100 121 119 102 85 113 115 120 144 157 160 161 173 211 233 180 159 166 166 166 169 187 205 227 218 219 245 284 295 290 288 290 291 286 290 294 296 300 303 309 312 313 314 317 321 323 325 326 329 332 334
98 127 128 136 99 88 112 111 141 140 137 150 142 166 167 176 181 152 146 143 143 156 168 189 212 209 210 227 258 284 287 283 280 281 281 282 292 291 291 295 300 303 307 309 313 318 321 323 324 326 328 331 335 338
79 123 110 80 83 65 59 98 125 137 150 159 136 159 167 133 131 136 140 152 156 164 181 189 197 224 263 276 279 277 273 268 269 278 290 296 291 290 293 295 298 302 305 310 316 319 320 321 325 328 330 330 331 331
91 98 99 69 62 68 24 102 124 132 140 131 112 116 110 118 125 138 147 154 165 182 203 240 268 274 276 266 254 243 246 261 285 294 297 297 296 295 295 297 301 305 310 313 318 320 319 320 323 326 330 334 338 339
98 89 77 64 78 70 107 113 119 114 104 99 110 115 117 122 142 156 164 178 205 247 278 261 254 255 247 239 229 233 254 290 296 299 298 297 297 299 301 305 310 313 315 317 317 319 321 324 328 331 336 340 343 342
60 62 114 100 106 122 101 96 82 79 83 87 76 102 114 117 124 154 176 207 209 196 208 222 242 246 240 233 225 222 286 304 306 304 303 303 305 308 311 313 315 315 314 314 316 316 317 321 327 332 335 338 340 342
77 79 87 96 98 78 69 90 63 71 51 60 50 67 89 117 128 189 192 206 206 199 205 243 255 250 239 234 235 251 292 303 306 307 307 309 311 313 314 317 317 316 315 317 315 312 315 319 325 329 331 331 333 336